User: anonymous   Login
Location: Bartlow
(52.0833°N, 0.3167°E)
Time: 04:31:33
(UTC+00:00)
Language:

Cosmos 1782 - Orbit

View from above orbital plane
View from above orbital plane
View from above satellite
View from above satellite

Ground track
Ground track

The orbit data is extracted from the following two-line orbital elements,

1 16986U 86074A   24060.58267942  .00004918  00000-0  25982-3 0  9991
2 16986  82.5304 254.8987 0006790 291.8156  68.2353 15.15272436 18722
Epoch (UTC): 29 February 2024 13:59:03
Eccentricity: 0.0006790
inclination: 82.5304°
perigee height: 515 km
apogee height: 525 km
right ascension of ascending node: 254.8987°
argument of perigee: 291.8156°
revolutions per day: 15.15272436
mean anomaly at epoch: 68.2353°
orbit number at epoch: 1872

The dashed part of the orbit path shows where the satellite is in the earth's shadow,  

DLR